Location: Heisede
(52.2582°N, 9.8523°E)
Time: 00:19:49
(UTC+00:00)

Cosmos 1805 Rocket - Pass Details

Date: 13 January 2026
Orbit: 598 x 623 km, 82.5° (Epoch: 17 February)

Event Time Altitude Azimuth Distance (km) Brightness Sun altitude
Rises 05:34:55 0° 197° (SSW) 2,895 7.0 -16.0°
Reaches altitude 10° 05:37:09 10° 200° (SSW) 1,993 6.1 -15.6°
Maximum altitude 05:41:32 66° 283° (WNW) 686 3.5 -15.0°
Drops below altitude 10° 05:45:58 10° 6° (N) 2,002 6.1 -14.3°
Sets 05:48:13 0° 9° (N) 2,910 6.9 -14.0°
